User: anonymous   Login
Location: Caltech
(34.1382°N, 118.1253°W)
Time: 12:17:24
(UTC-08:00)
Language:

SL-16 R/B - Orbit

View from above orbital plane
View from above orbital plane
View from above satellite
View from above satellite

Ground track
Ground track

The orbit data is extracted from the following two-line orbital elements,

1 28353U 04021B   16341.96718917 -.00000313  00000-0 -13921-3 0  9999
2 28353  71.0002 121.5794 0003459 159.4111 200.7152 14.14187402644985
Epoch (UTC): 06 December 2016 23:12:45
Eccentricity: 0.0003459
inclination: 71.0002°
perigee height: 842 km
apogee height: 847 km
right ascension of ascending node: 121.5794°
argument of perigee: 159.4111°
revolutions per day: 14.14187402
mean anomaly at epoch: 200.7152°
orbit number at epoch: 64498

The dashed part of the orbit path shows where the satellite is in the earth's shadow,  

DLR